Torna al catalogo

CZ-6A DEB

AttivoPO
NORAD 54354·DEBRIS·🇨🇳 China

Lanciato Nov 11, 2022 da Taiyuan Satellite Launch Center

Loading…

Prossimi Passaggi (prossime 24 ore)

TLE

AggiornatoSource: Space-Track

Epoca: Sep 14, 2026, 11:47 UTC

1 54354U 22151CZ  26257.49115781  .00009366  00000-0  11426-2 0  9990
2 54354  98.7152 354.4053 0094129   0.9086 359.2277 14.80445782203527

Traccia CZ-6A DEB in tempo reale con AllMySat

Download on the App Store